• In Deutschland
  • Länderverzeichnis
  • Für 7 Tage
  • Wassertemperatur
  • Satellitenkarten
  • Wetterkarte
  • Widgets
  • user-avatar
    Anmelden

    Stündliche Wetter Eilenburg

    Heute, 24 Januar, Mittwoch

    Zeit Temperatur Niederschläge Wind Luftdruck Luftfeuchtigkeit
    00:00 +3°C° 0,1 mm 6 m/S 754 mmHg 84%
    01:00 +3°C° 0,1 mm 6 m/S 754 mmHg 84%
    02:00 +3°C° 0,2 mm 6 m/S 753 mmHg 85%
    03:00 +4°C° 0,2 mm 6 m/S 753 mmHg 85%
    04:00 +4°C° 0,2 mm 6 m/S 753 mmHg 86%
    05:00 +4°C° 0 mm 6 m/S 753 mmHg 87%
    06:00 +4°C° 0 mm 6 m/S 753 mmHg 88%
    07:00 +4°C° 0 mm 6 m/S 753 mmHg 88%
    08:00 +5°C° 0 mm 6 m/S 753 mmHg 87%
    09:00 +7°C° 0 mm 6 m/S 753 mmHg 85%
    10:00 +7°C° 0 mm 6 m/S 753 mmHg 84%
    11:00 +8°C° 0 mm 6 m/S 753 mmHg 81%
    12:00 +9°C° 0 mm 6 m/S 753 mmHg 78%
    13:00 +10°C° 0 mm 7 m/S 752 mmHg 75%
    14:00 +10°C° 0 mm 6 m/S 752 mmHg 77%
    15:00 +9°C° 0 mm 6 m/S 752 mmHg 79%
    16:00 +9°C° 0 mm 6 m/S 751 mmHg 82%
    17:00 +9°C° 0 mm 6 m/S 751 mmHg 83%
    18:00 +8°C° 0 mm 6 m/S 751 mmHg 85%
    19:00 +8°C° 0 mm 6 m/S 751 mmHg 87%
    20:00 +8°C° 0 mm 6 m/S 750 mmHg 85%
    21:00 +8°C° 0 mm 6 m/S 750 mmHg 83%
    22:00 +8°C° 0 mm 6 m/S 750 mmHg 81%
    23:00 +8°C° 0 mm 6 m/S 750 mmHg 80%

    Morgen, 25 Januar, Donnerstag

    Zeit Temperatur Niederschläge Wind Luftdruck Luftfeuchtigkeit
    00:00 +8°C° 0 mm 6 m/S 750 mmHg 78%
    01:00 +8°C° 0 mm 7 m/S 750 mmHg 76%
    02:00 +7°C° 0 mm 6 m/S 749 mmHg 77%
    03:00 +7°C° 0 mm 6 m/S 749 mmHg 78%
    04:00 +7°C° 0 mm 6 m/S 749 mmHg 78%
    05:00 +7°C° 0 mm 6 m/S 749 mmHg 78%
    06:00 +7°C° 0 mm 6 m/S 749 mmHg 77%
    07:00 +7°C° 0 mm 6 m/S 749 mmHg 77%
    08:00 +7°C° 0 mm 6 m/S 749 mmHg 76%
    09:00 +7°C° 0 mm 6 m/S 749 mmHg 76%
    10:00 +8°C° 0 mm 6 m/S 749 mmHg 75%
    11:00 +8°C° 0,3 mm 5 m/S 749 mmHg 76%
    12:00 +8°C° 0,3 mm 5 m/S 748 mmHg 76%
    13:00 +8°C° 0,3 mm 5 m/S 748 mmHg 77%
    14:00 +8°C° 0,1 mm 4 m/S 748 mmHg 77%
    15:00 +8°C° 0,1 mm 4 m/S 748 mmHg 78%
    16:00 +9°C° 0,1 mm 3 m/S 748 mmHg 78%
    17:00 +8°C° 0 mm 3 m/S 748 mmHg 79%
    18:00 +8°C° 0 mm 3 m/S 748 mmHg 81%
    19:00 +7°C° 0 mm 3 m/S 748 mmHg 82%
    20:00 +7°C° 0,1 mm 3 m/S 748 mmHg 83%
    21:00 +7°C° 0,1 mm 3 m/S 748 mmHg 84%
    22:00 +7°C° 0,1 mm 3 m/S 748 mmHg 85%
    23:00 +5°C° 0,1 mm 3 m/S 747 mmHg 86%

    übermorgen, 26 Januar, Freitag

    Zeit Temperatur Niederschläge Wind Luftdruck Luftfeuchtigkeit
    00:00 +6°C° 0,1 mm 2 m/S 747 mmHg 86%
    01:00 +6°C° 0,1 mm 2 m/S 747 mmHg 87%
    02:00 +6°C° 0,3 mm 2 m/S 747 mmHg 87%
    03:00 +6°C° 0,3 mm 2 m/S 747 mmHg 87%
    04:00 +6°C° 0,3 mm 2 m/S 747 mmHg 87%
    05:00 +6°C° 0,1 mm 2 m/S 747 mmHg 88%
    06:00 +5°C° 0,1 mm 2 m/S 747 mmHg 90%
    07:00 +5°C° 0,1 mm 2 m/S 747 mmHg 91%
    08:00 +5°C° 0,3 mm 2 m/S 748 mmHg 91%
    09:00 +6°C° 0,3 mm 2 m/S 748 mmHg 91%
    10:00 +6°C° 0,3 mm 2 m/S 748 mmHg 91%
    11:00 +6°C° 0,5 mm 2 m/S 749 mmHg 91%
    12:00 +6°C° 0,5 mm 2 m/S 749 mmHg 91%
    13:00 +6°C° 0,5 mm 2 m/S 749 mmHg 92%
    14:00 +6°C° 0,5 mm 2 m/S 749 mmHg 92%
    15:00 +6°C° 0,5 mm 2 m/S 750 mmHg 93%
    16:00 +6°C° 0,5 mm 2 m/S 750 mmHg 93%
    17:00 +6°C° 0,2 mm 1 m/S 750 mmHg 94%
    18:00 +6°C° 0,2 mm 1 m/S 751 mmHg 95%
    19:00 +6°C° 0,2 mm 1 m/S 751 mmHg 96%
    20:00 +6°C° 0,1 mm 1 m/S 752 mmHg 96%
    21:00 +5°C° 0,1 mm 1 m/S 753 mmHg 96%
    22:00 +5°C° 0,1 mm 1 m/S 753 mmHg 96%
    23:00 +5°C° 0,1 mm 1 m/S 754 mmHg 96%

    27 Januar, Samstag

    Zeit Temperatur Niederschläge Wind Luftdruck Luftfeuchtigkeit
    00:00 +5°C° 0,1 mm 1 m/S 754 mmHg 96%
    01:00 +5°C° 0,1 mm 1 m/S 754 mmHg 95%
    02:00 +5°C° 0 mm 1 m/S 755 mmHg 95%
    03:00 +4°C° 0 mm 1 m/S 755 mmHg 95%
    04:00 +4°C° 0 mm 1 m/S 755 mmHg 95%
    05:00 +4°C° 0 mm 1 m/S 756 mmHg 95%
    06:00 +4°C° 0 mm 1 m/S 756 mmHg 95%
    07:00 +3°C° 0 mm 1 m/S 757 mmHg 95%
    08:00 +4°C° 0 mm 1 m/S 758 mmHg 94%
    09:00 +4°C° 0 mm 1 m/S 758 mmHg 92%
    10:00 +5°C° 0 mm 1 m/S 759 mmHg 90%
    11:00 +5°C° 0 mm 1 m/S 759 mmHg 87%
    12:00 +6°C° 0 mm 1 m/S 760 mmHg 83%
    13:00 +7°C° 0 mm 1 m/S 760 mmHg 79%
    14:00 +7°C° 0 mm 1 m/S 760 mmHg 80%
    15:00 +6°C° 0 mm 0 m/S 761 mmHg 81%
    16:00 +6°C° 0 mm 0 m/S 761 mmHg 82%
    17:00 +6°C° 0 mm 1 m/S 761 mmHg 84%
    18:00 +5°C° 0 mm 1 m/S 762 mmHg 86%
    19:00 +5°C° 0 mm 1 m/S 762 mmHg 88%
    20:00 +4°C° 0 mm 1 m/S 763 mmHg 89%
    21:00 +4°C° 0 mm 1 m/S 763 mmHg 89%
    22:00 +3°C° 0 mm 2 m/S 763 mmHg 90%
    23:00 +2°C° 0 mm 2 m/S 763 mmHg 90%

    28 Januar, Sonntag

    Zeit Temperatur Niederschläge Wind Luftdruck Luftfeuchtigkeit
    00:00 +2°C° 0 mm 2 m/S 763 mmHg 91%
    01:00 +2°C° 0 mm 2 m/S 763 mmHg 91%
    02:00 +2°C° 0 mm 2 m/S 763 mmHg 90%
    03:00 +1°C° 0 mm 2 m/S 763 mmHg 90%
    04:00 0°C° 0 mm 3 m/S 763 mmHg 90%
    05:00 0°C° 0 mm 3 m/S 763 mmHg 89%
    06:00 0°C° 0 mm 3 m/S 763 mmHg 89%
    07:00 0°C° 0 mm 3 m/S 763 mmHg 88%
    08:00 0°C° 0 mm 4 m/S 764 mmHg 85%
    09:00 +1°C° 0 mm 4 m/S 764 mmHg 81%
    10:00 +2°C° 0 mm 5 m/S 764 mmHg 77%
    11:00 +3°C° 0 mm 5 m/S 764 mmHg 72%
    12:00 +5°C° 0 mm 5 m/S 763 mmHg 67%
    13:00 +6°C° 0 mm 5 m/S 763 mmHg 62%
    14:00 +6°C° 0 mm 5 m/S 763 mmHg 64%
    15:00 +6°C° 0 mm 5 m/S 763 mmHg 65%
    16:00 +6°C° 0 mm 4 m/S 763 mmHg 67%
    17:00 +5°C° 0 mm 5 m/S 763 mmHg 69%
    18:00 +5°C° 0 mm 5 m/S 763 mmHg 71%
    19:00 +5°C° 0 mm 5 m/S 763 mmHg 74%
    20:00 +3°C° 0 mm 5 m/S 763 mmHg 75%
    21:00 +3°C° 0 mm 5 m/S 763 mmHg 76%
    22:00 +3°C° 0 mm 5 m/S 763 mmHg 78%
    23:00 +3°C° 0 mm 5 m/S 763 mmHg 79%

    29 Januar, Montag

    Zeit Temperatur Niederschläge Wind Luftdruck Luftfeuchtigkeit
    00:00 +5°C° 0 mm 5 m/S 762 mmHg 80%
    01:00 +5°C° 0 mm 5 m/S 762 mmHg 81%
    02:00 +5°C° 0 mm 5 m/S 762 mmHg 82%
    03:00 +5°C° 0 mm 5 m/S 762 mmHg 84%
    04:00 +5°C° 0 mm 5 m/S 761 mmHg 85%
    05:00 +5°C° 0 mm 5 m/S 761 mmHg 86%
    06:00 +5°C° 0 mm 5 m/S 761 mmHg 87%
    07:00 +5°C° 0 mm 5 m/S 761 mmHg 88%
    08:00 +4°C° 0 mm 6 m/S 761 mmHg 87%
    09:00 +5°C° 0 mm 6 m/S 761 mmHg 85%
    10:00 +5°C° 0 mm 7 m/S 761 mmHg 83%
    11:00 +6°C° 0 mm 7 m/S 760 mmHg 82%
    12:00 +6°C° 0 mm 7 m/S 760 mmHg 80%
    13:00 +8°C° 0 mm 7 m/S 760 mmHg 79%
    14:00 +8°C° 0 mm 7 m/S 760 mmHg 80%
    15:00 +8°C° 0 mm 6 m/S 759 mmHg 80%
    16:00 +8°C° 0 mm 6 m/S 759 mmHg 81%
    17:00 +8°C° 0 mm 6 m/S 759 mmHg 82%
    18:00 +8°C° 0 mm 6 m/S 759 mmHg 83%
    19:00 +8°C° 0 mm 5 m/S 759 mmHg 84%
    20:00 +8°C° 0 mm 5 m/S 759 mmHg 84%
    21:00 +7°C° 0 mm 5 m/S 759 mmHg 85%
    22:00 +7°C° 0 mm 5 m/S 759 mmHg 85%
    23:00 +7°C° 0 mm 5 m/S 759 mmHg 85%
    Mehr zeigen